Dover, DE

4:54 PM EDT on September 26, 2016 (GMT -0400)
Dover Air Force Base

Weather History for KDOV - August, 2013

Change the Weather History Date:

Friday, August 2, 2013

  Actual Average Record
Temperature  
Mean Temperature 75 °F -  
Max Temperature 84 °F 87 °F 98 °F (1955)
Min Temperature 66 °F 67 °F 57 °F (1976)
Cooling Degree Days 10    
Growing Degree Days 25 (Base 50)    
Moisture  
Dew Point 67 °F    
Average Humidity 78    
Maximum Humidity 100    
Minimum Humidity 47    
Precipitation  
Precipitation 0.00 in - - ()
Sea Level Pressure  
Sea Level Pressure 29.90 in    
Wind  
Wind Speed 6 mph (SW)    
Max Wind Speed 16 mph    
Max Gust Speed -    
Visibility 10 miles    
Events      
Averages and records for this station are not official NWS values.
T = Trace of Precipitation, MM = Missing Value Source: NWS Daily Summary

Daily Weather History Graph

Daily Weather History Graph

Search for Another Location

Airport or City:

Trip Planner

Search our weather history database for the weather conditions in past years. The results will help you decide how hot, cold, wet, or windy it might be!

Date:

Astronomy

Aug. 02, 2013 Rise Set
Actual Time 6:03 AM EDT 8:12 PM EDT
Civil Twilight 5:33 AM EDT 8:41 PM EDT
Nautical Twilight 4:57 AM EDT 9:18 PM EDT
Astronomical Twilight 4:17 AM EDT 9:57 PM EDT
Moon 2:22 AM EDT (8/2) 5:07 PM EDT (8/2)
Length of Visible Light 15h 08m
Length of Day
14h 08m
Waning Crescent, 16% of the Moon is Illuminated
Aug 2
Waning Crescent
Aug 6
New
Aug 14
First Quarter
Aug 20
Full
Aug 28
Last Quarter

Hourly Weather History & Observations

Time (EDT) Temp. Heat Index Dew Point Humidity Pressure Visibility Wind Dir Wind Speed Gust Speed Precip Events Conditions
12:10 AM 69.8 °F - 68.0 °F 94% 29.83 in 10.0 mi West 8.1 mph - N/A   Light Drizzle
12:51 AM 68.0 °F - 68.0 °F 100% 29.82 in 10.0 mi SSW 2.3 mph - N/A   Mostly Cloudy
12:58 AM 68.5 °F - 68.4 °F 99% 29.83 in 10.0 mi West 2.3 mph - 0.00 in   Mostly Cloudy
1:58 AM 68.5 °F - 66.9 °F 95% 29.83 in 10.0 mi West 4.6 mph - N/A   Partly Cloudy
2:58 AM 67.5 °F - 66.6 °F 97% 29.83 in 10.0 mi WSW 4.6 mph - N/A   Clear
3:58 AM 66.7 °F - 66.4 °F 99% 29.83 in 10.0 mi WSW 3.5 mph - N/A   Clear
4:58 AM 66.7 °F - 66.6 °F 99% 29.85 in 10.0 mi West 3.5 mph - N/A   Clear
5:58 AM 67.6 °F - 67.3 °F 99% 29.87 in 10.0 mi West 4.6 mph - N/A   Clear
6:58 AM 68.2 °F - 67.8 °F 99% 29.89 in 7.0 mi WNW 3.5 mph - N/A   Clear
7:58 AM 71.2 °F - 71.1 °F 99% 29.91 in 10.0 mi NW 8.1 mph - N/A   Clear
8:58 AM 73.8 °F - 72.0 °F 94% 29.93 in 10.0 mi NNW 5.8 mph - N/A   Clear
9:58 AM 77.0 °F - 71.2 °F 82% 29.94 in 10.0 mi Calm Calm - N/A   Partly Cloudy
10:58 AM 79.2 °F - 70.9 °F 76% 29.94 in 10.0 mi SSW 4.6 mph - N/A   Clear
11:58 AM 81.5 °F 83.6 °F 65.8 °F 59% 29.94 in 10.0 mi SSW 3.5 mph - N/A   Partly Cloudy
12:58 PM 83.7 °F 85.3 °F 64.8 °F 53% 29.95 in 10.0 mi Variable 5.8 mph - N/A   Scattered Clouds
1:58 PM 83.5 °F 84.7 °F 63.5 °F 51% 29.94 in 10.0 mi Variable 5.8 mph - N/A   Scattered Clouds
2:58 PM 84.2 °F 85.8 °F 64.9 °F 52% 29.94 in 10.0 mi SSW 11.5 mph - N/A   Clear
3:58 PM 84.6 °F 85.2 °F 62.4 °F 47% 29.93 in 10.0 mi SSW 9.2 mph - N/A   Clear
4:58 PM 84.0 °F 84.7 °F 62.4 °F 48% 29.92 in 10.0 mi SSW 16.1 mph - N/A   Partly Cloudy
5:58 PM 82.6 °F 83.4 °F 62.4 °F 50% 29.93 in 10.0 mi SSW 12.7 mph - N/A   Clear
6:58 PM 81.0 °F 82.6 °F 64.4 °F 57% 29.92 in 10.0 mi SSW 10.4 mph - N/A   Clear
7:58 PM 78.3 °F - 65.8 °F 65% 29.91 in 10.0 mi SSW 9.2 mph - N/A   Clear
8:58 PM 75.7 °F - 65.7 °F 71% 29.93 in 10.0 mi SSW 6.9 mph - N/A   Clear
9:58 PM 73.6 °F - 65.8 °F 77% 29.94 in 10.0 mi South 4.6 mph - N/A   Clear
10:58 PM 73.4 °F - 67.3 °F 81% 29.95 in 10.0 mi South 6.9 mph - N/A   Clear
11:58 PM 72.9 °F - 68.5 °F 86% 29.94 in 10.0 mi South 5.8 mph - N/A   Partly Cloudy